Showing default

NUSAT-35 (WILLIAMINA), 55048

Orbit data source: Space-Track

NUSAT-35 (WILLIAMINA), 55048 is a payload satellite owned by URUGUS S.A. (AR) in SSO that was launched on Tue, 03 Jan 2023 UTC via an FALCON 9 launch vehicle from the Air Force Eastern Test Range (AFETR). Payload-class satellites include a variety of spacecraft equipped with specific instruments for various scientific and technological missions. These include communications satellites like Starlink; space stations such as the ISS; scientific satellites like the Hubble; Earth observation satellites from companies like Planet Labs, Umbra, and HawkEye 360; GPS; miniature CubeSats for education and research; and military/defense satellites.

Loading next visibility...
Identifier
55048, 2023-001AR
Orbit
SSO
Country
Flag of ARAR / ARGN
Related business
Manufacturer
URUGUS S.A.
Mission
Operational Commercial Imaging
Bus & Motor
NEWSAT V, Unknown motor
Mass
41.5 kg wet, 38.5 kg dry
Launch date (UTC)
2023-01-03 (4 years ago)
Launch vehicle
FALCON 9
Launch site
Air Force Eastern Test Range (AFETR)
Object type
Payload
Rocket body
Debris
Shape & HBR
Box, 1.0 m
Radar Cross Section
0.542 m², Medium (>0.1 m² and < 1m²)

Expand to show TLE details & history
Last TLE update: 19 hours ago

TLE from 19 hours ago
0 NUSAT-35 (WILLIAMINA)
1 55048U 23001AR  26206.61075262  .00012928  00000-0  36978-3 0  9991
2 55048  97.1835 258.4081 0009320 330.2132  29.8581 15.36049332198303
Epoch: 2026-07-25T14:39Z
TLE epoch observation values (Epoch: 2026-07-25T14:39:29.026Z)
Latitude
0.00001°
Longitude
95.2166°
Altitude
455.399 km
Speed
7.642 km/s
True Right ascension
17h 13m 37s
True Declination
0° 00' 00"
Sunlit
Object was in full shadow at epoch
Visualization orbit readout
Latitude
Unknown
Longitude
Unknown
Altitude
Unknown
Speed
Unknown
Apparent Right ascension
Unknown
Apparent Declination
Unknown
Sunlit
N/A
Visualization observer readout
Local Sidereal Time
23:02:25
Azimuth
Unknown
Elevation
Unknown
Doppler factor
Unknown
Orbital elements
Apogee altitude
461.109 km
Perigee altitude
448.372 km
Semi-major axis
6,832.877 km
Eccentricity
0.00093
Inclination
97.1835°
RAAN
258.4081°
Arg. of periapsis
330.2132°
True anomaly
29.91132°
Mean anomaly
29.8581°
Eccentric anomaly
29.88471°
Mean motion
3.84271 °/min
Orbital period
93.68 mins
BSTAR
0.00036978
Loading maneuver chart data...
Computing Atmospheric mass density...

Documentation

Showing up to 5 results
|